RYR2GH EGNM-LEPA

Flight info

Callsign RYR2GH
Flight time 2h 15m
Altitude 23000
Route POL DCT MCT DCT LISTO P18 STAFA L8 HON/N0449F350 UN859 SOPIL DCT BALAN DCT EVPOK DCT NARAK DCT GAI DCT LOMRA DCT ROCAN DCT IBRAP DCT LUKEV N13 LORES
Aircraft A320/M-SDE3FGHIRWY/LB1

Departure

Time 2026-05-07 08:19
Airport Leeds Bradford Airport (EGNM)

Arrival

Time 2026-05-07 10:35
Airport Palma de Mallorca Airport (LEPA)
Time Latitude Longitude Altitude Speed Heading
2026-05-07 08:13 53.86813 -1.65638 666 ft 1 kts 269°
2026-05-07 08:13 53.86813 -1.65635 666 ft 0 kts 271°
2026-05-07 08:15 53.86813 -1.65636 666 ft 0 kts 271°
2026-05-07 08:15 53.86814 -1.65665 666 ft 6 kts 275°
2026-05-07 08:16 53.86812 -1.65778 666 ft 10 kts 264°
2026-05-07 08:16 53.86813 -1.65938 666 ft 15 kts 271°
2026-05-07 08:16 53.86833 -1.66114 666 ft 15 kts 310°
2026-05-07 08:16 53.86913 -1.66241 666 ft 15 kts 317°
2026-05-07 08:17 53.86979 -1.66391 665 ft 15 kts 298°
2026-05-07 08:17 53.86969 -1.66554 665 ft 13 kts 227°
2026-05-07 08:17 53.86995 -1.66681 665 ft 16 kts 317°
2026-05-07 08:17 53.87110 -1.66856 665 ft 25 kts 317°
2026-05-07 08:18 53.87241 -1.66996 665 ft 21 kts 359°
2026-05-07 08:18 53.87354 -1.66993 665 ft 15 kts 353°
2026-05-07 08:18 53.87389 -1.67120 665 ft 14 kts 238°
2026-05-07 08:18 53.87335 -1.67201 665 ft 8 kts 163°
2026-05-07 08:19 53.87225 -1.67031 665 ft 52 kts 137°
2026-05-07 08:19 53.86770 -1.66334 666 ft 122 kts 138°
2026-05-07 08:19 53.86004 -1.65165 844 ft 161 kts 137°
2026-05-07 08:19 53.85212 -1.63972 1633 ft 153 kts 139°
2026-05-07 08:20 53.84428 -1.62806 2401 ft 153 kts 139°
2026-05-07 08:20 53.83649 -1.61603 2914 ft 155 kts 139°
2026-05-07 08:20 53.82701 -1.60638 3232 ft 167 kts 171°
2026-05-07 08:20 53.81572 -1.61026 3564 ft 180 kts 210°
2026-05-07 08:21 53.80512 -1.62336 3917 ft 196 kts 216°
2026-05-07 08:21 53.79381 -1.63802 4285 ft 213 kts 223°
2026-05-07 08:21 53.78603 -1.66039 4566 ft 237 kts 255°
2026-05-07 08:21 53.78355 -1.68865 5046 ft 253 kts 263°
2026-05-07 08:22 53.78179 -1.71870 5667 ft 263 kts 262°
2026-05-07 08:22 53.77956 -1.74913 6522 ft 263 kts 261°
2026-05-07 08:22 53.77690 -1.77966 7331 ft 265 kts 260°
2026-05-07 08:22 53.77396 -1.81043 8078 ft 269 kts 259°
2026-05-07 08:23 53.77088 -1.84142 8794 ft 272 kts 259°
2026-05-07 08:23 53.76769 -1.87292 9489 ft 275 kts 259°
2026-05-07 08:23 53.76444 -1.90469 10150 ft 279 kts 259°
2026-05-07 08:23 53.76106 -1.93738 10608 ft 290 kts 259°
2026-05-07 08:24 53.75750 -1.97181 10900 ft 306 kts 259°
2026-05-07 08:24 53.75367 -2.00870 11184 ft 321 kts 259°
2026-05-07 08:24 53.74937 -2.04648 11453 ft 336 kts 253°
2026-05-07 08:24 53.73870 -2.08212 11704 ft 349 kts 231°
2026-05-07 08:25 53.72033 -2.10886 12151 ft 356 kts 210°
2026-05-07 08:25 53.69708 -2.12326 12739 ft 359 kts 194°
2026-05-07 08:25 53.67283 -2.13295 13321 ft 361 kts 194°
2026-05-07 08:25 53.64826 -2.14293 13846 ft 365 kts 195°
2026-05-07 08:26 53.59885 -2.16319 14886 ft 371 kts 195°
2026-05-07 08:26 53.57367 -2.17354 15384 ft 374 kts 195°
2026-05-07 08:26 53.54859 -2.18385 15867 ft 377 kts 195°
2026-05-07 08:27 53.52299 -2.19436 16343 ft 380 kts 195°
2026-05-07 08:27 53.49759 -2.20478 16808 ft 382 kts 195°
2026-05-07 08:27 53.47175 -2.21536 17277 ft 385 kts 195°
2026-05-07 08:27 53.44572 -2.22601 17739 ft 388 kts 194°
2026-05-07 08:28 53.41948 -2.23676 18185 ft 390 kts 194°
2026-05-07 08:28 53.39300 -2.24756 18617 ft 393 kts 194°
2026-05-07 08:28 53.36600 -2.25495 19043 ft 396 kts 185°
2026-05-07 08:28 53.33832 -2.25534 19473 ft 399 kts 176°
2026-05-07 08:29 53.31072 -2.24922 19891 ft 402 kts 171°
2026-05-07 08:29 53.28280 -2.24089 20307 ft 404 kts 170°
2026-05-07 08:29 53.25456 -2.23222 20717 ft 406 kts 170°
2026-05-07 08:29 53.22624 -2.22365 21102 ft 409 kts 170°
2026-05-07 08:30 53.19752 -2.21510 21471 ft 411 kts 170°
2026-05-07 08:30 53.16892 -2.20733 21835 ft 414 kts 173°
2026-05-07 08:30 53.14001 -2.20357 22191 ft 416 kts 178°
2026-05-07 08:30 53.11107 -2.20432 22540 ft 419 kts 183°
2026-05-07 08:31 53.08160 -2.20850 22891 ft 421 kts 184°
2026-05-07 08:31 53.05227 -2.21311 23022 ft 423 kts 184°
2026-05-07 08:31 53.02286 -2.21779 23028 ft 423 kts 185°
2026-05-07 08:31 52.99348 -2.22240 23033 ft 423 kts 185°
2026-05-07 08:32 52.96395 -2.22702 23035 ft 423 kts 185°
2026-05-07 08:32 52.93443 -2.23159 23034 ft 423 kts 184°
2026-05-07 08:32 52.90479 -2.23616 23038 ft 423 kts 184°
2026-05-07 08:32 52.87540 -2.23508 23032 ft 422 kts 170°
2026-05-07 08:33 52.84722 -2.22196 23033 ft 421 kts 156°
2026-05-07 08:33 52.82162 -2.19803 23042 ft 420 kts 145°
2026-05-07 08:33 52.79778 -2.17042 23041 ft 419 kts 144°
2026-05-07 08:33 52.77391 -2.14239 23040 ft 419 kts 144°
2026-05-07 08:34 52.75003 -2.11443 23035 ft 418 kts 144°
2026-05-07 08:34 52.72604 -2.08648 23039 ft 418 kts 144°
2026-05-07 08:34 52.70237 -2.05902 23039 ft 418 kts 144°
2026-05-07 08:34 52.67858 -2.03151 23039 ft 418 kts 144°
2026-05-07 08:35 52.65461 -2.00387 23041 ft 418 kts 144°
2026-05-07 08:35 52.63078 -1.97646 23040 ft 418 kts 144°
2026-05-07 08:35 52.60698 -1.94912 23043 ft 419 kts 144°
2026-05-07 08:35 52.58289 -1.92149 23049 ft 418 kts 144°
2026-05-07 08:36 52.55933 -1.89451 23047 ft 418 kts 144°
2026-05-07 08:36 52.53547 -1.86721 23048 ft 418 kts 144°
2026-05-07 08:36 52.51147 -1.83979 23049 ft 418 kts 144°
2026-05-07 08:36 52.48762 -1.81256 23050 ft 418 kts 144°
2026-05-07 08:37 52.46385 -1.78547 23050 ft 418 kts 144°
2026-05-07 08:37 52.44006 -1.75839 23053 ft 418 kts 144°
2026-05-07 08:37 52.41628 -1.73138 23054 ft 418 kts 144°
2026-05-07 08:37 52.39251 -1.70443 23052 ft 418 kts 145°
2026-05-07 08:38 52.36769 -1.67951 23082 ft 421 kts 150°
2026-05-07 08:38 52.34142 -1.65854 23406 ft 424 kts 155°
2026-05-07 08:38 52.31395 -1.64157 23795 ft 425 kts 160°
2026-05-07 08:38 52.28575 -1.62660 24144 ft 426 kts 161°
2026-05-07 08:39 52.25703 -1.61166 24468 ft 428 kts 161°
2026-05-07 08:39 52.22848 -1.59688 24772 ft 431 kts 161°
2026-05-07 08:39 52.19974 -1.58200 25090 ft 433 kts 161°
2026-05-07 08:39 52.17090 -1.56705 25402 ft 434 kts 161°
2026-05-07 08:40 52.14182 -1.55199 25699 ft 436 kts 160°
2026-05-07 08:40 52.11237 -1.53673 25993 ft 438 kts 160°
2026-05-07 08:40 52.08333 -1.52169 26272 ft 440 kts 160°
2026-05-07 08:40 52.05413 -1.50659 26550 ft 442 kts 161°
2026-05-07 08:41 52.02453 -1.49130 26825 ft 444 kts 161°
2026-05-07 08:41 51.99532 -1.47624 27092 ft 445 kts 160°
2026-05-07 08:41 51.96555 -1.46091 27349 ft 447 kts 160°
2026-05-07 08:41 51.93605 -1.44573 27581 ft 449 kts 160°
2026-05-07 08:42 51.90651 -1.43056 27819 ft 450 kts 161°
2026-05-07 08:42 51.87653 -1.41516 28051 ft 452 kts 161°
2026-05-07 08:42 51.84666 -1.39985 28278 ft 453 kts 160°
2026-05-07 08:42 51.81626 -1.38431 28510 ft 454 kts 160°
2026-05-07 08:43 51.78645 -1.36910 28808 ft 453 kts 160°
2026-05-07 08:43 51.75629 -1.35372 29140 ft 451 kts 161°
2026-05-07 08:43 51.72661 -1.33859 29471 ft 450 kts 161°
2026-05-07 08:43 51.69687 -1.32349 29800 ft 448 kts 161°
2026-05-07 08:44 51.66710 -1.30839 30110 ft 447 kts 162°
2026-05-07 08:44 51.63761 -1.29341 30420 ft 445 kts 162°
2026-05-07 08:44 51.60836 -1.27862 30727 ft 444 kts 162°
2026-05-07 08:44 51.57877 -1.26367 31006 ft 443 kts 162°
2026-05-07 08:45 51.54952 -1.24889 31262 ft 442 kts 162°
2026-05-07 08:45 51.52033 -1.23411 31509 ft 441 kts 161°
2026-05-07 08:45 51.49124 -1.21754 31746 ft 440 kts 159°
2026-05-07 08:45 51.46315 -1.19872 31971 ft 440 kts 156°
2026-05-07 08:46 51.43561 -1.17832 32146 ft 441 kts 156°
2026-05-07 08:46 51.40749 -1.15761 32305 ft 443 kts 156°
2026-05-07 08:46 51.37970 -1.13726 32452 ft 444 kts 156°
2026-05-07 08:46 51.35170 -1.11678 32649 ft 444 kts 156°
2026-05-07 08:47 51.32371 -1.09628 32832 ft 444 kts 156°
2026-05-07 08:47 51.29551 -1.07565 33048 ft 444 kts 156°
2026-05-07 08:47 51.26773 -1.05532 33275 ft 443 kts 156°
2026-05-07 08:47 51.23965 -1.03481 33452 ft 443 kts 156°
2026-05-07 08:48 51.21163 -1.01441 33613 ft 444 kts 156°
2026-05-07 08:48 51.18371 -0.99412 33786 ft 444 kts 156°
2026-05-07 08:48 51.15573 -0.97379 33962 ft 444 kts 156°
2026-05-07 08:48 51.12734 -0.95318 34149 ft 444 kts 156°
2026-05-07 08:49 51.09934 -0.93288 34331 ft 444 kts 156°
2026-05-07 08:49 51.07144 -0.91266 34498 ft 444 kts 156°
2026-05-07 08:49 51.04336 -0.89233 34647 ft 444 kts 156°
2026-05-07 08:49 51.01545 -0.87213 34794 ft 444 kts 156°
2026-05-07 08:50 50.98748 -0.85192 34942 ft 444 kts 156°
2026-05-07 08:50 50.95945 -0.83169 35039 ft 444 kts 156°
2026-05-07 08:50 50.90316 -0.79119 35047 ft 444 kts 156°
2026-05-07 08:51 50.84789 -0.74775 35054 ft 445 kts 151°
2026-05-07 08:51 50.79556 -0.69622 35052 ft 446 kts 148°
2026-05-07 08:52 50.74367 -0.64345 35051 ft 445 kts 148°
2026-05-07 08:52 50.69158 -0.59059 35055 ft 446 kts 148°
2026-05-07 08:53 50.63967 -0.53808 35054 ft 447 kts 148°
2026-05-07 08:53 50.58734 -0.48528 35050 ft 447 kts 148°
2026-05-07 08:54 50.53524 -0.43286 35048 ft 447 kts 148°
2026-05-07 08:54 50.48286 -0.38029 35050 ft 447 kts 148°
2026-05-07 08:55 50.43033 -0.32772 35048 ft 448 kts 149°
2026-05-07 08:55 50.37808 -0.27553 35046 ft 448 kts 149°
2026-05-07 08:56 50.32545 -0.22310 35047 ft 448 kts 149°
2026-05-07 08:56 50.27289 -0.17086 35046 ft 448 kts 149°
2026-05-07 08:57 50.22063 -0.11906 35045 ft 448 kts 149°
2026-05-07 08:57 50.16788 -0.06710 35046 ft 448 kts 150°
2026-05-07 08:58 50.11312 -0.02123 35045 ft 447 kts 156°
2026-05-07 08:58 50.05545 0.01471 35044 ft 447 kts 163°
2026-05-07 08:59 49.99606 0.04059 35045 ft 447 kts 167°
2026-05-07 08:59 49.93593 0.06426 35046 ft 447 kts 167°
2026-05-07 09:00 49.87552 0.08807 35047 ft 447 kts 167°
2026-05-07 09:00 49.81493 0.11186 35044 ft 447 kts 167°
2026-05-07 09:01 49.75482 0.13540 35050 ft 446 kts 167°
2026-05-07 09:01 49.69448 0.15893 35032 ft 447 kts 167°
2026-05-07 09:02 49.63454 0.18277 35047 ft 447 kts 167°
2026-05-07 09:02 49.57380 0.20731 35055 ft 447 kts 167°
2026-05-07 09:03 49.51356 0.23156 35062 ft 446 kts 167°
2026-05-07 09:03 49.45346 0.25567 35059 ft 446 kts 167°
2026-05-07 09:04 49.39274 0.27997 35061 ft 446 kts 167°
2026-05-07 09:04 49.33257 0.30399 35065 ft 446 kts 167°
2026-05-07 09:05 49.27244 0.32852 35055 ft 446 kts 166°
2026-05-07 09:05 49.21241 0.35393 35054 ft 446 kts 166°
2026-05-07 09:06 49.15211 0.37937 35050 ft 446 kts 166°
2026-05-07 09:06 49.09162 0.40477 35046 ft 446 kts 166°
2026-05-07 09:07 49.03185 0.42980 35048 ft 446 kts 166°
2026-05-07 09:07 48.97163 0.45495 35042 ft 447 kts 166°
2026-05-07 09:08 48.91108 0.48018 35029 ft 448 kts 166°
2026-05-07 09:08 48.85052 0.50538 35023 ft 448 kts 166°
2026-05-07 09:09 48.79025 0.53036 35027 ft 448 kts 166°
2026-05-07 09:09 48.72951 0.55437 35032 ft 448 kts 167°
2026-05-07 09:10 48.66869 0.57806 35029 ft 448 kts 167°
2026-05-07 09:10 48.60803 0.60174 35028 ft 448 kts 167°
2026-05-07 09:11 48.54724 0.62546 35021 ft 448 kts 167°
2026-05-07 09:11 48.48652 0.64950 35020 ft 448 kts 166°
2026-05-07 09:12 48.42590 0.67425 35019 ft 448 kts 166°
2026-05-07 09:12 48.36552 0.69885 35017 ft 448 kts 166°
2026-05-07 09:13 48.30510 0.72336 35018 ft 447 kts 167°
2026-05-07 09:13 48.24456 0.74778 35018 ft 447 kts 167°
2026-05-07 09:14 48.18386 0.77166 35018 ft 447 kts 167°
2026-05-07 09:14 48.12337 0.79536 35019 ft 448 kts 167°
2026-05-07 09:15 48.06256 0.81918 35019 ft 449 kts 167°
2026-05-07 09:15 48.00177 0.84297 35020 ft 448 kts 167°
2026-05-07 09:16 47.94133 0.86661 35018 ft 447 kts 167°
2026-05-07 09:16 47.88097 0.89017 35014 ft 447 kts 167°
2026-05-07 09:17 47.82034 0.91371 35015 ft 447 kts 167°
2026-05-07 09:17 47.75982 0.93710 35018 ft 447 kts 167°
2026-05-07 09:18 47.69943 0.96043 35017 ft 447 kts 167°
2026-05-07 09:18 47.63907 0.98373 35018 ft 448 kts 167°
2026-05-07 09:19 47.57851 1.00704 35015 ft 448 kts 167°
2026-05-07 09:19 47.51825 1.03018 35015 ft 447 kts 167°
2026-05-07 09:20 47.45759 1.05059 35016 ft 446 kts 172°
2026-05-07 09:20 47.39593 1.06121 35016 ft 444 kts 179°
2026-05-07 09:21 47.33385 1.06204 35020 ft 443 kts 183°
2026-05-07 09:21 47.27230 1.06058 35016 ft 443 kts 183°
2026-05-07 09:22 47.21074 1.05919 35020 ft 443 kts 183°
2026-05-07 09:22 47.14884 1.05779 35017 ft 443 kts 183°
2026-05-07 09:23 47.08724 1.05640 35020 ft 443 kts 183°
2026-05-07 09:23 47.02556 1.05499 35016 ft 442 kts 183°
2026-05-07 09:24 46.96386 1.05250 35019 ft 441 kts 184°
2026-05-07 09:24 46.90264 1.04971 35016 ft 441 kts 184°
2026-05-07 09:25 46.84092 1.04702 35013 ft 441 kts 184°
2026-05-07 09:25 46.77965 1.04442 35017 ft 441 kts 184°
2026-05-07 09:26 46.71799 1.04182 35014 ft 441 kts 184°
2026-05-07 09:26 46.65669 1.03925 35007 ft 441 kts 184°
2026-05-07 09:27 46.59540 1.03667 35013 ft 441 kts 184°
2026-05-07 09:28 46.50314 1.04200 35009 ft 443 kts 175°
2026-05-07 09:28 46.44260 1.05765 35008 ft 445 kts 169°
2026-05-07 09:29 46.38217 1.07797 35009 ft 445 kts 169°
2026-05-07 09:29 46.32207 1.09802 35006 ft 445 kts 169°
2026-05-07 09:30 46.26188 1.11803 35006 ft 444 kts 169°
2026-05-07 09:30 46.20184 1.13796 35003 ft 444 kts 169°
2026-05-07 09:31 46.14186 1.15783 35002 ft 444 kts 169°
2026-05-07 09:31 46.08120 1.17790 35000 ft 444 kts 170°
2026-05-07 09:32 46.02086 1.19780 35003 ft 445 kts 170°
2026-05-07 09:32 45.95995 1.21783 35001 ft 445 kts 170°
2026-05-07 09:33 45.89978 1.23758 35005 ft 445 kts 170°
2026-05-07 09:33 45.83935 1.25739 35002 ft 444 kts 170°
2026-05-07 09:34 45.77939 1.27699 35001 ft 443 kts 170°
2026-05-07 09:34 45.71905 1.29668 34996 ft 443 kts 170°
2026-05-07 09:35 45.65904 1.31623 34989 ft 443 kts 170°
2026-05-07 09:35 45.59882 1.33581 34983 ft 444 kts 170°
2026-05-07 09:36 45.53887 1.35527 34982 ft 444 kts 171°
2026-05-07 09:36 45.47845 1.37479 34979 ft 443 kts 171°
2026-05-07 09:37 45.41845 1.39408 34977 ft 443 kts 171°
2026-05-07 09:37 45.35823 1.41341 34980 ft 443 kts 171°
2026-05-07 09:38 45.29812 1.43269 34981 ft 443 kts 171°
2026-05-07 09:38 45.23829 1.45186 34982 ft 443 kts 171°
2026-05-07 09:39 45.17848 1.47098 34985 ft 443 kts 171°
2026-05-07 09:39 45.11826 1.49020 34990 ft 442 kts 171°
2026-05-07 09:40 45.05843 1.50926 34994 ft 442 kts 171°
2026-05-07 09:40 44.99847 1.52831 34997 ft 441 kts 171°
2026-05-07 09:41 44.93863 1.54726 34996 ft 441 kts 171°
2026-05-07 09:41 44.87864 1.56623 34996 ft 442 kts 171°
2026-05-07 09:42 44.81862 1.58518 34992 ft 442 kts 171°
2026-05-07 09:42 44.75905 1.60394 34991 ft 441 kts 171°
2026-05-07 09:43 44.69908 1.62281 34993 ft 441 kts 171°
2026-05-07 09:43 44.63919 1.64159 34991 ft 440 kts 171°
2026-05-07 09:44 44.57938 1.66032 34991 ft 440 kts 172°
2026-05-07 09:44 44.51977 1.67895 34995 ft 439 kts 172°
2026-05-07 09:45 44.46027 1.69752 34991 ft 439 kts 172°
2026-05-07 09:45 44.40042 1.71617 34992 ft 439 kts 172°
2026-05-07 09:46 44.34094 1.73465 34991 ft 438 kts 172°
2026-05-07 09:46 44.28143 1.75181 34990 ft 436 kts 175°
2026-05-07 09:47 44.22136 1.76504 34996 ft 436 kts 175°
2026-05-07 09:47 44.16162 1.77830 34996 ft 435 kts 175°
2026-05-07 09:48 44.10189 1.79152 34995 ft 436 kts 175°
2026-05-07 09:48 44.04184 1.80478 35001 ft 435 kts 175°
2026-05-07 09:49 43.98216 1.81791 35001 ft 435 kts 175°
2026-05-07 09:49 43.92214 1.82710 35001 ft 431 kts 180°
2026-05-07 09:50 43.86196 1.83290 35001 ft 431 kts 180°
2026-05-07 09:50 43.80240 1.83874 35004 ft 431 kts 180°
2026-05-07 09:51 43.74223 1.84460 34999 ft 431 kts 180°
2026-05-07 09:51 43.68268 1.85037 35007 ft 431 kts 180°
2026-05-07 09:52 43.62258 1.85618 34998 ft 430 kts 180°
2026-05-07 09:52 43.56297 1.86193 34997 ft 430 kts 180°
2026-05-07 09:53 43.50304 1.86772 34997 ft 429 kts 180°
2026-05-07 09:53 43.44328 1.87347 35000 ft 428 kts 180°
2026-05-07 09:54 43.38342 1.87923 34998 ft 428 kts 180°
2026-05-07 09:54 43.32377 1.88492 34993 ft 428 kts 180°
2026-05-07 09:55 43.26416 1.89058 34983 ft 427 kts 180°
2026-05-07 09:55 43.20457 1.89625 34982 ft 428 kts 180°
2026-05-07 09:56 43.14484 1.90194 34985 ft 428 kts 180°
2026-05-07 09:56 43.08552 1.90759 34978 ft 426 kts 180°
2026-05-07 09:57 43.02599 1.91324 34973 ft 425 kts 180°
2026-05-07 09:57 42.96631 1.91894 34971 ft 425 kts 180°
2026-05-07 09:58 42.90694 1.92456 34963 ft 425 kts 180°
2026-05-07 09:58 42.84742 1.93018 34948 ft 426 kts 180°
2026-05-07 09:59 42.78786 1.93580 34955 ft 426 kts 180°
2026-05-07 09:59 42.72813 1.94144 34960 ft 426 kts 180°
2026-05-07 10:00 42.66837 1.95127 34961 ft 429 kts 175°
2026-05-07 10:00 42.60957 1.96952 34963 ft 432 kts 170°
2026-05-07 10:01 42.55149 1.99042 34963 ft 431 kts 170°
2026-05-07 10:01 42.49319 2.01133 34966 ft 430 kts 170°
2026-05-07 10:02 42.43504 2.03221 34967 ft 430 kts 170°
2026-05-07 10:02 42.37666 2.05313 34965 ft 430 kts 170°
2026-05-07 10:03 42.31876 2.07372 34967 ft 430 kts 170°
2026-05-07 10:03 42.26001 2.09453 34968 ft 431 kts 170°
2026-05-07 10:04 42.20187 2.11512 34969 ft 431 kts 170°
2026-05-07 10:04 42.14343 2.13580 34978 ft 430 kts 170°
2026-05-07 10:05 42.08506 2.15642 34979 ft 430 kts 170°
2026-05-07 10:05 42.02684 2.17696 34982 ft 429 kts 170°
2026-05-07 10:06 41.96913 2.19727 34983 ft 429 kts 170°
2026-05-07 10:06 41.91083 2.21778 34982 ft 429 kts 171°
2026-05-07 10:07 41.85298 2.23809 34981 ft 429 kts 171°
2026-05-07 10:07 41.79515 2.25833 34981 ft 429 kts 171°
2026-05-07 10:08 41.73739 2.27849 34981 ft 429 kts 171°
2026-05-07 10:08 41.67992 2.29848 34982 ft 428 kts 171°
2026-05-07 10:09 41.62223 2.31856 34981 ft 428 kts 171°
2026-05-07 10:09 41.56398 2.33881 34978 ft 428 kts 171°
2026-05-07 10:10 41.50543 2.35913 34976 ft 427 kts 171°
2026-05-07 10:10 41.44705 2.37934 34978 ft 427 kts 171°
2026-05-07 10:11 41.38860 2.39957 34971 ft 427 kts 171°
2026-05-07 10:11 41.33035 2.41969 34975 ft 426 kts 171°
2026-05-07 10:12 41.27189 2.43983 34969 ft 425 kts 171°
2026-05-07 10:12 41.21370 2.45984 34972 ft 425 kts 171°
2026-05-07 10:13 41.15533 2.47650 34969 ft 418 kts 181°
2026-05-07 10:13 41.09621 2.47621 34698 ft 414 kts 187°
2026-05-07 10:13 41.06702 2.47498 34151 ft 411 kts 187°
2026-05-07 10:14 41.03781 2.47378 33526 ft 407 kts 186°
2026-05-07 10:14 41.00901 2.47265 32894 ft 405 kts 186°
2026-05-07 10:14 40.98056 2.47157 32254 ft 407 kts 186°
2026-05-07 10:14 40.95150 2.47049 31591 ft 409 kts 186°
2026-05-07 10:15 40.92217 2.46941 30876 ft 411 kts 186°
2026-05-07 10:15 40.89319 2.46837 30132 ft 411 kts 186°
2026-05-07 10:15 40.86402 2.46732 29360 ft 412 kts 186°
2026-05-07 10:15 40.83505 2.46628 28557 ft 414 kts 186°
2026-05-07 10:16 40.80517 2.46522 27713 ft 417 kts 186°
2026-05-07 10:16 40.77531 2.46416 26867 ft 419 kts 185°
2026-05-07 10:16 40.74571 2.46313 26326 ft 418 kts 185°
2026-05-07 10:16 40.71579 2.46210 25786 ft 415 kts 185°
2026-05-07 10:17 40.68623 2.46110 25250 ft 411 kts 185°
2026-05-07 10:17 40.65710 2.46009 24724 ft 407 kts 185°
2026-05-07 10:17 40.62816 2.45910 24181 ft 404 kts 185°
2026-05-07 10:17 40.60004 2.45814 23648 ft 400 kts 185°
2026-05-07 10:18 40.57162 2.45715 23119 ft 397 kts 185°
2026-05-07 10:18 40.54313 2.45617 22578 ft 393 kts 185°
2026-05-07 10:18 40.51538 2.45517 22047 ft 390 kts 185°
2026-05-07 10:18 40.48783 2.45385 21524 ft 387 kts 186°
2026-05-07 10:19 40.46038 2.45207 20997 ft 384 kts 186°
2026-05-07 10:19 40.43330 2.45027 20477 ft 382 kts 185°
2026-05-07 10:19 40.40588 2.44847 19946 ft 380 kts 185°
2026-05-07 10:19 40.37902 2.44673 19417 ft 379 kts 185°
2026-05-07 10:20 40.35183 2.44501 18881 ft 378 kts 184°
2026-05-07 10:20 40.32489 2.44332 18346 ft 376 kts 184°
2026-05-07 10:20 40.29853 2.44167 17822 ft 375 kts 184°
2026-05-07 10:20 40.27203 2.44004 17296 ft 374 kts 184°
2026-05-07 10:21 40.24543 2.43839 16762 ft 373 kts 184°
2026-05-07 10:21 40.21866 2.43671 16225 ft 372 kts 184°
2026-05-07 10:21 40.19223 2.43506 15690 ft 371 kts 183°
2026-05-07 10:21 40.16594 2.43342 15152 ft 370 kts 183°
2026-05-07 10:22 40.13978 2.43178 14618 ft 369 kts 183°
2026-05-07 10:22 40.11351 2.43015 14081 ft 368 kts 183°
2026-05-07 10:22 40.08726 2.42852 13546 ft 367 kts 183°
2026-05-07 10:22 40.06110 2.42690 13013 ft 365 kts 183°
2026-05-07 10:23 40.03493 2.42526 12477 ft 364 kts 182°
2026-05-07 10:23 40.00887 2.42363 11940 ft 363 kts 182°
2026-05-07 10:23 39.98302 2.42202 11407 ft 361 kts 182°
2026-05-07 10:23 39.95739 2.42044 10988 ft 356 kts 182°
2026-05-07 10:24 39.93221 2.41890 10731 ft 345 kts 182°
2026-05-07 10:24 39.90794 2.41740 10562 ft 333 kts 182°
2026-05-07 10:24 39.88479 2.41597 10387 ft 322 kts 182°
2026-05-07 10:24 39.86200 2.41456 10166 ft 314 kts 182°
2026-05-07 10:25 39.84012 2.41321 10001 ft 304 kts 182°
2026-05-07 10:25 39.81863 2.41189 9873 ft 294 kts 182°
2026-05-07 10:25 39.79775 2.41060 9492 ft 293 kts 182°
2026-05-07 10:25 39.77694 2.40931 9120 ft 292 kts 182°
2026-05-07 10:26 39.75594 2.40801 8745 ft 292 kts 182°
2026-05-07 10:26 39.73508 2.40672 8409 ft 289 kts 181°
2026-05-07 10:26 39.71488 2.40550 8037 ft 286 kts 181°
2026-05-07 10:26 39.69472 2.40430 7654 ft 286 kts 181°
2026-05-07 10:27 39.67453 2.40311 7337 ft 285 kts 181°
2026-05-07 10:27 39.65481 2.40196 7007 ft 286 kts 181°
2026-05-07 10:27 39.63499 2.40079 6636 ft 286 kts 181°
2026-05-07 10:27 39.61501 2.39962 6286 ft 284 kts 180°
2026-05-07 10:28 39.59530 2.39846 6011 ft 280 kts 180°
2026-05-07 10:28 39.57550 2.39730 5656 ft 281 kts 180°
2026-05-07 10:28 39.55594 2.39708 5449 ft 273 kts 169°
2026-05-07 10:28 39.53820 2.40522 5263 ft 262 kts 145°
2026-05-07 10:29 39.52338 2.41899 5017 ft 257 kts 141°
2026-05-07 10:29 39.50897 2.43298 4778 ft 253 kts 141°
2026-05-07 10:29 39.49462 2.44675 4537 ft 249 kts 141°
2026-05-07 10:30 39.46676 2.47377 4082 ft 240 kts 132°
2026-05-07 10:30 39.45801 2.49210 3824 ft 232 kts 104°
2026-05-07 10:30 39.45764 2.51251 3575 ft 227 kts 76°
2026-05-07 10:30 39.46299 2.53186 3377 ft 224 kts 65°
2026-05-07 10:31 39.47067 2.54972 3124 ft 219 kts 59°
2026-05-07 10:31 39.47884 2.56634 2811 ft 212 kts 59°
2026-05-07 10:31 39.48678 2.58262 2410 ft 210 kts 60°
2026-05-07 10:31 39.49433 2.59850 1984 ft 198 kts 61°
2026-05-07 10:32 39.50116 2.61305 1757 ft 181 kts 60°
2026-05-07 10:32 39.50748 2.62652 1560 ft 166 kts 61°
2026-05-07 10:32 39.51332 2.63895 1324 ft 154 kts 61°
2026-05-07 10:32 39.51868 2.65034 1093 ft 141 kts 60°
2026-05-07 10:33 39.52361 2.66055 899 ft 129 kts 61°
2026-05-07 10:33 39.52834 2.67026 734 ft 126 kts 60°
2026-05-07 10:33 39.53289 2.67999 596 ft 126 kts 60°
2026-05-07 10:33 39.53729 2.68967 462 ft 125 kts 58°
2026-05-07 10:34 39.54184 2.69942 289 ft 126 kts 62°
2026-05-07 10:34 39.54638 2.70901 114 ft 124 kts 60°
2026-05-07 10:34 39.55075 2.71832 44 ft 111 kts 57°
2026-05-07 10:34 39.55390 2.72493 44 ft 57 kts 59°
2026-05-07 10:35 39.55493 2.72839 44 ft 26 kts 88°
2026-05-07 10:35 39.55496 2.73026 44 ft 13 kts 86°
2026-05-07 10:35 39.55452 2.73065 44 ft 11 kts 221°
2026-05-07 10:35 39.55402 2.72975 44 ft 10 kts 221°
2026-05-07 10:36 39.55350 2.72987 44 ft 6 kts 149°
2026-05-07 10:36 39.55323 2.73008 44 ft 0 kts 148°
2026-05-07 10:36 39.55315 2.73015 44 ft 2 kts 148°
2026-05-07 10:36 39.55285 2.73041 44 ft 8 kts 136°
2026-05-07 10:37 39.55287 2.73116 44 ft 9 kts 60°
2026-05-07 10:37 39.55323 2.73194 44 ft 10 kts 59°
2026-05-07 10:37 39.55347 2.73250 44 ft 2 kts 94°
2026-05-07 10:37 39.55328 2.73259 44 ft 3 kts 207°
2026-05-07 10:38 39.55300 2.73239 44 ft 5 kts 202°
2026-05-07 10:38 39.55268 2.73228 44 ft 3 kts 195°
2026-05-07 10:38 39.55254 2.73222 44 ft 1 kts 197°
2026-05-07 10:38 39.55252 2.73221 44 ft 0 kts 197°